This demonstration page uses our WeatherBlox Daily Observations layout. Learn more.

Left ArrowRight Arrow

38.88101, -77.10428

Hourly Observations for June 24, 2021

Temp ( °F °C ) Dew Point ( °F °C ) Humidity (%) Winds ( mph kmh ) Pressure ( in mb ) Visibility ( mi km ) Precip ( " mm )
12:52 am 00:52 Mostly Clear 66 18.9 51 10.6 59 59 WSW 3 6 30.30 1026 10 16 N/A
1:52 am 01:52 Mostly Clear 65 18.3 51 10.6 61 61 WSW 3 6 30.31 1026 10 16 N/A
2:52 am 02:52 Mostly Clear 64 17.8 51 10.6 63 63 WSW 3 6 30.31 1026 10 16 N/A
3:52 am 03:52 Mostly Cloudy 60 15.6 51 10.6 72 72 SW 3 6 30.31 1027 10 16 N/A
4:52 am 04:52 Mostly Cloudy 62 16.7 53 11.7 73 73 N N/A 30.32 1027 10 16 N/A
5:52 am 05:52 Mostly Cloudy 62 16.7 52 11.1 70 70 WSW 3 6 30.33 1027 10 16 N/A
6:52 am 06:52 Partly Cloudy 63 17.2 52 11.1 68 68 N N/A 30.35 1028 10 16 N/A
7:52 am 07:52 Mostly Sunny 68 20 54 12.2 61 61 N N/A 30.35 1028 10 16 N/A
8:52 am 08:52 Mostly Sunny 70 21.1 55 12.8 59 59 NE 3 6 30.35 1028 10 16 N/A
9:52 am 09:52 Mostly Sunny 74 23.3 51 10.6 45 45 N N/A 30.35 1028 10 16 N/A
10:52 am 10:52 Partly Cloudy 76 24.4 49 9.4 39 39 ENE 7 11 30.36 1028 10 16 N/A
11:52 am 11:52 Partly Cloudy 75 23.9 52 11.1 45 45 SE 8 13 30.38 1029 10 16 N/A
12:52 pm 12:52 Partly Cloudy 77 25 54 12.2 45 45 E 9 15 30.36 1028 10 16 N/A
1:52 pm 13:52 Mostly Cloudy 76 24.4 51 10.6 42 42 ESE 8 13 30.34 1027 10 16 N/A
2:52 pm 14:52 Partly Cloudy 78 25.6 52 11.1 40 40 E 8 13 30.32 1027 10 16 N/A
3:52 pm 15:52 Partly Cloudy 78 25.6 51 10.6 39 39 ESE 7 11 30.30 1026 10 16 N/A
4:52 pm 16:52 Mostly Sunny 78 25.6 52 11.1 40 40 ESE 7 11 30.29 1026 10 16 N/A
5:52 pm 17:52 Mostly Sunny 77 25 51 10.6 40 40 E 7 11 30.26 1025 10 16 N/A
6:52 pm 18:52 Mostly Sunny 76 24.4 51 10.6 42 42 SE 5 7 30.28 1025 10 16 N/A
7:52 pm 19:52 Mostly Sunny 75 23.9 51 10.6 43 43 ESE 10 17 30.28 1025 10 16 N/A
8:52 pm 20:52 Mostly Clear 73 22.8 52 11.1 48 48 ESE 8 13 30.28 1025 10 16 N/A
9:52 pm 21:52 Mostly Clear 71 21.7 52 11.1 51 51 ESE 8 13 30.31 1026 10 16 N/A
10:52 pm 22:52 Mostly Clear 70 21.1 53 11.7 55 55 ESE 9 15 30.32 1027 10 16 N/A
11:52 pm 23:52 Mostly Clear 69 20.6 54 12.2 59 59 SE 7 11 30.32 1027 10 16 N/A

Powered by AerisWeather